Precipitable_Water
0.83 1.06 1.09 1.10 1.13 1.20 1.21 1.21 1.22 1.25 1.26 1.26 1.28 1.28 1.28 1.27 1.23 1.20 1.21 1.18 1.20 1.24 1.28 1.34 1.36 1.36 1.33 1.31 1.31 1.37 1.40 1.52 1.59 1.64 1.75 1.73 1.61 1.60 1.60 1.65 1.66 1.76 1.73
0.96 1.11 1.10 1.11 1.14 1.18 1.22 1.24 1.25 1.28 1.28 1.28 1.29 1.29 1.31 1.31 1.23 1.22 1.20 1.21 1.23 1.31 1.34 1.34 1.33 1.37 1.38 1.40 1.38 1.43 1.45 1.56 1.60 1.66 1.72 1.63 1.66 1.64 1.62 1.64 1.74 1.70 1.70
1.05 1.12 1.13 1.12 1.13 1.15 1.21 1.24 1.26 1.29 1.26 1.26 1.27 1.29 1.32 1.31 1.27 1.21 1.21 1.19 1.27 1.32 1.32 1.30 1.30 1.33 1.35 1.36 1.37 1.43 1.49 1.59 1.65 1.74 1.71 1.67 1.66 1.68 1.60 1.61 1.66 1.62 1.69
1.14 1.12 1.11 1.10 1.11 1.12 1.15 1.19 1.21 1.23 1.24 1.25 1.26 1.30 1.32 1.29 1.25 1.21 1.21 1.21 1.28 1.34 1.32 1.28 1.27 1.31 1.33 1.36 1.40 1.45 1.53 1.58 1.63 1.67 1.65 1.58 1.60 1.61 1.59 1.65 1.66 1.67 1.69
1.19 1.15 1.10 1.06 1.10 1.12 1.12 1.13 1.18 1.19 1.20 1.22 1.24 1.28 1.29 1.27 1.22 1.22 1.23 1.26 1.30 1.32 1.31 1.27 1.30 1.32 1.33 1.36 1.43 1.50 1.54 1.57 1.61 1.59 1.68 1.59 1.60 1.62 1.62 1.58 1.59 1.67 1.69
1.20 1.16 1.14 1.09 1.10 1.11 1.10 1.09 1.13 1.13 1.17 1.19 1.18 1.22 1.25 1.26 1.24 1.24 1.24 1.26 1.28 1.29 1.32 1.29 1.31 1.35 1.33 1.38 1.45 1.49 1.52 1.54 1.55 1.59 1.58 1.59 1.61 1.61 1.55 1.60 1.65 1.66 1.70
1.18 1.18 1.19 1.15 1.14 1.13 1.11 1.11 1.07 1.07 1.11 1.13 1.14 1.16 1.21 1.22 1.23 1.26 1.27 1.28 1.30 1.32 1.31 1.33 1.34 1.35 1.37 1.41 1.47 1.48 1.45 1.42 1.43 1.52 1.51 1.51 1.63 1.57 1.59 1.59 1.63 1.64 1.64
1.14 1.25 1.27 1.27 1.23 1.20 1.16 1.13 1.09 1.10 1.12 1.12 1.16 1.18 1.20 1.21 1.24 1.28 1.29 1.30 1.31 1.36 1.32 1.36 1.36 1.38 1.42 1.43 1.46 1.43 1.39 1.43 1.45 1.48 1.47 1.50 1.55 1.57 1.62 1.62 1.61 1.64 1.64
1.20 1.24 1.32 1.33 1.31 1.26 1.23 1.16 1.10 1.10 1.13 1.16 1.15 1.16 1.21 1.27 1.27 1.26 1.28 1.29 1.30 1.30 1.32 1.36 1.43 1.36 1.41 1.43 1.44 1.37 1.36 1.41 1.48 1.50 1.48 1.55 1.50 1.54 1.65 1.64 1.63 1.67 1.67
1.24 1.22 1.29 1.37 1.36 1.34 1.30 1.21 1.15 1.15 1.15 1.15 1.16 1.17 1.20 1.22 1.24 1.24 1.24 1.29 1.33 1.31 1.31 1.35 1.36 1.36 1.41 1.45 1.44 1.38 1.39 1.43 1.45 1.46 1.51 1.52 1.51 1.53 1.64 1.67 1.66 1.66 1.63
1.28 1.26 1.32 1.29 1.34 1.38 1.33 1.26 1.22 1.22 1.20 1.21 1.21 1.18 1.22 1.25 1.26 1.26 1.24 1.26 1.27 1.30 1.31 1.32 1.36 1.36 1.41 1.46 1.45 1.40 1.42 1.44 1.44 1.45 1.57 1.58 1.52 1.55 1.66 1.64 1.70 1.66 1.63
1.22 1.26 1.32 1.28 1.31 1.36 1.34 1.32 1.28 1.28 1.26 1.22 1.24 1.26 1.22 1.25 1.30 1.30 1.29 1.29 1.29 1.30 1.29 1.32 1.38 1.39 1.41 1.45 1.44 1.44 1.43 1.44 1.41 1.45 1.55 1.56 1.51 1.57 1.65 1.70 1.70 1.65 1.62
1.27 1.30 1.31 1.25 1.30 1.34 1.31 1.30 1.28 1.29 1.29 1.28 1.22 1.24 1.26 1.25 1.27 1.28 1.34 1.33 1.33 1.30 1.28 1.29 1.32 1.35 1.39 1.38 1.55 1.40 1.44 1.47 1.49 1.58 1.58 1.57 1.52 1.55 1.62 1.71 1.73 1.69 1.63
1.29 1.34 1.39 1.25 1.27 1.30 1.30 1.27 1.24 1.23 1.25 1.22 1.23 1.25 1.20 1.25 1.25 1.22 1.23 1.29 1.30 1.31 1.24 1.27 1.26 1.29 1.31 1.40 1.49 1.46 1.44 1.50 1.46 1.56 1.56 1.54 1.56 1.60 1.66 1.76 1.71 1.67 1.65
0.75 1.11 1.41 1.36 1.22 1.22 1.20 1.24 1.22 1.19 1.20 1.17 1.20 1.25 1.26 1.18 1.16 1.22 1.22 1.24 1.26 1.31 1.29 1.24 1.24 1.25 1.30 1.37 1.45 1.46 1.47 1.47 1.55 1.55 1.55 1.57 1.50 1.56 1.62 1.78 1.88 1.76 1.67
0.58 0.64 0.95 1.24 1.31 1.28 1.20 1.12 1.19 1.22 1.27 1.21 1.15 1.20 1.28 1.26 1.19 1.14 1.19 1.22 1.20 1.25 1.29 1.27 1.22 1.21 1.23 1.33 1.38 1.41 1.41 1.51 1.48 1.55 1.54 1.50 1.47 1.49 1.57 1.76 1.88 1.78 1.69
0.49 0.56 0.65 0.89 1.24 1.25 1.34 1.28 1.24 1.22 1.29 1.26 1.27 1.23 1.25 1.25 1.22 1.16 1.14 1.16 1.19 1.25 1.26 1.24 1.27 1.25 1.20 1.27 1.26 1.34 1.38 1.46 1.45 1.51 1.51 1.48 1.50 1.49 1.49 1.57 1.77 1.53 1.66
0.53 0.53 0.56 0.64 0.75 1.00 1.18 1.33 1.35 1.31 1.34 1.37 1.29 1.29 1.27 1.25 1.27 1.21 1.13 1.12 1.22 1.26 1.25 1.15 1.18 1.16 1.09 1.11 1.15 1.24 1.29 1.40 1.46 1.51 1.49 1.46 1.53 1.52 1.55 1.52 1.58 1.65 1.68
0.62 0.63 0.63 0.61 0.62 0.76 0.98 1.12 1.19 1.26 1.30 1.35 1.33 1.26 1.19 1.21 1.24 1.22 1.17 1.17 1.20 1.20 1.22 1.15 1.10 1.13 0.99 1.01 1.07 1.17 1.26 1.35 1.42 1.47 1.46 1.47 1.51 1.56 1.61 1.61 1.56 1.66 1.74
0.67 0.66 0.66 0.69 0.68 0.59 0.74 0.94 0.98 1.05 1.13 1.23 1.25 1.25 1.24 1.19 1.19 1.25 1.26 1.21 1.20 1.16 1.17 1.16 1.06 1.13 1.05 0.99 1.04 1.08 1.18 1.27 1.35 1.46 1.43 1.47 1.51 1.52 1.58 1.61 1.58 1.60 1.76
0.67 0.67 0.66 0.65 0.70 0.69 0.55 0.70 0.83 0.83 0.88 0.96 1.06 1.17 1.26 1.25 1.24 1.21 1.34 1.28 1.22 1.16 1.13 1.16 1.09 1.05 1.03 1.06 0.95 0.99 1.09 1.19 1.28 1.39 1.44 1.44 1.46 1.48 1.50 1.55 1.55 1.63 1.58
0.64 0.68 0.68 0.67 0.68 0.71 0.70 0.60 0.81 0.89 0.88 0.90 1.02 1.06 1.14 1.24 1.23 1.23 1.27 1.31 1.26 1.18 1.14 1.15 1.06 1.00 1.04 1.07 0.87 0.85 0.77 0.92 1.12 1.27 1.32 1.42 1.43 1.48 1.49 1.52 1.50 1.55 1.70
0.57 0.60 0.64 0.67 0.69 0.70 0.72 0.70 0.67 0.86 0.92 0.91 0.89 0.91 0.95 1.03 1.15 1.21 1.21 1.30 1.34 1.23 1.10 1.12 1.09 1.03 0.94 1.03 1.04 0.81 0.73 0.68 0.88 1.07 1.17 1.26 1.40 1.41 1.44 1.51 1.46 1.52 1.59
0.52 0.57 0.59 0.62 0.66 0.70 0.74 0.70 0.67 0.68 0.77 0.81 0.82 0.84 0.87 0.94 1.08 1.20 1.21 1.24 1.38 1.32 1.16 1.13 1.15 1.14 1.07 0.91 1.04 1.00 0.95 0.92 0.75 0.74 0.99 1.09 1.26 1.33 1.37 1.47 1.42 1.46 1.53
0.53 0.53 0.56 0.58 0.60 0.66 0.70 0.72 0.71 0.64 0.79 0.91 0.88 0.89 0.94 0.94 1.02 1.13 1.18 1.22 1.29 1.39 1.31 1.19 1.17 1.20 1.16 1.03 0.93 0.97 0.92 0.89 0.92 0.89 0.75 0.87 1.07 1.21 1.27 1.37 1.32 1.32 1.44
0.52 0.53 0.55 0.56 0.57 0.62 0.67 0.71 0.73 0.72 0.70 0.88 0.87 0.88 0.95 0.97 0.98 1.10 1.17 1.20 1.22 1.36 1.39 1.32 1.29 1.28 1.20 1.10 1.05 1.03 0.91 0.79 0.85 0.84 0.85 0.87 0.95 1.08 1.20 1.19 1.21 1.24 1.39
Wind_Speed
13 14 15 13 12 10 9 9 9 8 9 8 8 8 7 6 5 4 3 3 3 3 4 4 4 4 4 5 6 7 7 6 6 6 5 5 4 4 5 6 8 7 7
13 15 16 15 13 11 10 9 9 9 9 9 9 9 8 8 7 6 5 4 4 4 4 4 4 5 5 5 6 6 7 6 6 6 6 5 5 6 6 7 8 7 8
14 16 17 15 14 12 10 9 9 10 10 10 10 10 9 9 8 7 6 6 5 6 6 5 5 6 6 6 7 7 7 7 7 7 6 6 7 7 9 9 9 9 9
14 17 17 16 15 13 12 10 10 10 11 11 11 11 11 10 10 9 8 7 7 7 7 7 7 7 7 7 7 7 7 8 7 7 7 8 8 8 9 11 10 9 12
15 17 17 17 16 14 13 11 11 11 12 12 12 12 12 12 11 11 10 9 8 8 8 8 8 8 8 7 7 7 7 7 8 8 7 8 8 10 10 11 12 12 11
16 17 18 18 17 16 14 13 12 12 12 13 14 14 13 13 13 12 11 11 10 10 10 10 9 9 9 8 8 8 8 8 8 9 9 9 9 10 11 12 12 14 13
18 18 19 19 18 17 15 14 13 12 13 13 15 14 14 14 13 13 13 12 12 12 11 11 11 10 10 9 9 9 9 10 10 9 9 10 10 11 12 13 14 15 14
19 19 20 21 20 19 17 16 15 14 13 14 14 15 15 14 14 14 14 14 14 13 13 13 12 12 11 11 11 11 11 11 11 11 11 11 12 12 13 15 16 16 15
20 21 20 21 22 21 19 18 17 16 16 15 15 15 16 16 15 15 15 15 15 15 15 15 14 14 13 13 12 12 13 13 13 13 13 13 14 15 15 17 17 17 16
22 22 22 23 23 22 21 20 19 18 17 17 17 17 17 17 16 17 17 17 16 16 16 16 16 15 15 14 14 14 14 15 15 15 15 15 16 17 18 19 20 19 18
24 24 25 25 24 24 22 21 20 19 19 18 18 19 18 18 18 17 18 18 17 17 17 17 17 17 16 16 16 15 16 16 16 16 17 17 18 19 20 21 22 21 20
25 26 26 26 26 25 24 23 23 21 20 20 20 20 20 20 19 19 19 18 18 18 18 18 18 17 17 17 17 17 17 17 18 17 17 17 18 20 22 24 25 24 23
25 27 28 28 28 27 26 25 24 23 22 22 21 21 22 21 20 20 20 20 19 19 19 19 18 18 18 18 18 18 19 18 19 18 18 17 18 20 22 25 27 26 25
24 27 28 30 30 30 29 27 26 25 24 24 23 23 22 22 21 21 21 20 20 19 19 19 19 19 19 19 19 19 19 19 19 18 17 18 20 21 23 27 29 30 27
26 27 28 30 31 32 32 30 29 28 27 26 26 25 24 23 23 23 22 21 20 20 19 19 19 19 20 20 20 20 21 20 20 19 19 19 21 23 25 29 39 29 30
27 29 31 31 32 32 33 34 32 30 30 30 29 28 28 26 25 25 25 23 22 21 20 20 19 19 20 20 21 22 22 21 21 22 21 22 23 25 27 26 24 28 32
30 30 31 33 34 35 35 35 34 32 32 30 31 31 30 29 27 27 27 26 24 23 21 20 20 20 20 20 21 22 22 22 22 22 23 23 25 24 26 29 31 32 31
32 32 33 34 36 37 38 37 38 37 36 35 34 33 33 31 30 29 29 28 27 25 22 21 21 20 20 21 21 22 22 23 23 24 23 25 24 26 27 30 29 29 31
31 33 35 36 37 39 40 41 41 41 41 39 37 36 35 34 32 31 31 30 29 27 24 23 21 20 20 21 21 21 22 22 23 23 22 21 23 23 26 25 28 29 35
30 32 34 36 38 40 41 42 43 43 42 42 40 39 38 37 35 33 33 33 32 30 27 25 23 22 20 20 20 21 21 22 22 22 22 21 23 22 19 22 24 26 29
28 30 32 34 36 39 41 42 43 44 44 44 43 43 41 40 39 36 34 35 35 33 30 28 25 23 21 20 19 20 21 21 21 21 22 22 20 20 18 21 25 25 29
27 29 30 32 34 36 38 40 41 42 43 45 45 45 44 44 41 40 37 36 38 35 32 30 27 24 23 21 19 18 18 20 22 22 22 23 20 20 19 18 23 23 25
27 29 30 32 32 34 37 40 42 42 42 43 44 45 47 46 45 44 41 38 38 38 35 33 30 27 24 23 21 19 17 18 18 21 24 23 22 23 22 22 22 25 29
28 29 31 33 34 35 36 38 41 43 44 44 43 43 44 48 47 46 43 41 39 39 38 35 32 29 26 24 22 22 22 19 18 18 21 22 23 24 24 24 24 25 31
30 31 33 35 37 38 39 40 42 45 45 44 43 43 43 44 46 46 45 43 41 39 39 37 35 31 29 26 24 21 23 23 22 22 21 21 23 26 26 24 26 28 30
32 34 35 37 39 40 40 41 42 45 47 45 45 42 41 42 44 45 45 44 42 41 39 38 36 34 31 28 25 24 23 22 23 23 24 24 24 23 25 26 26 27 30
Wind_Direction
239 219 214 216 218 222 229 235 237 235 232 232 232 228 226 224 226 229 228 228 221 220 223 226 231 234 240 250 256 254 250 247 240 241 249 242 227 216 204 197 185 180 177
229 218 215 217 220 224 230 236 239 238 232 232 232 230 231 231 233 233 234 237 232 232 232 237 242 240 248 261 259 253 245 240 241 245 234 228 217 216 206 200 200 187 184
228 217 215 218 219 224 228 234 238 236 234 234 231 231 232 233 235 236 240 240 238 240 242 246 248 247 257 263 261 253 243 242 241 232 223 233 235 234 236 207 202 200 190
225 217 216 217 220 225 229 233 236 237 237 236 234 233 233 235 236 237 241 242 244 246 247 249 252 251 258 263 260 253 244 241 235 227 236 245 241 237 217 211 207 197 191
225 218 218 219 222 226 229 232 238 242 242 237 236 235 236 237 238 238 241 242 245 248 249 251 252 253 258 263 256 248 240 233 227 231 246 246 244 234 222 217 213 199 190
226 222 222 220 223 226 230 235 242 247 243 240 239 239 239 239 238 238 241 244 247 250 250 251 252 253 256 259 252 245 239 234 233 244 249 249 244 232 224 217 206 200 195
228 227 224 222 225 228 231 237 243 245 244 243 241 241 241 242 240 240 242 245 248 251 251 250 251 251 253 255 252 246 244 240 240 251 249 248 245 233 225 217 207 202 198
231 230 227 225 227 228 233 239 241 244 245 243 242 242 242 243 243 243 245 246 248 250 251 250 251 252 252 254 251 247 246 242 247 254 251 250 246 235 226 214 207 203 199
234 232 229 228 228 230 235 240 243 246 246 244 243 242 243 244 245 247 247 248 250 251 251 250 251 251 251 253 252 249 250 245 253 256 255 253 245 236 225 214 208 203 199
235 233 232 230 230 233 237 240 243 246 247 247 246 244 244 245 247 248 249 249 249 250 250 250 251 251 252 252 253 252 249 250 256 257 256 258 248 238 225 216 210 205 202
238 236 234 233 232 234 237 241 243 245 246 248 247 246 246 248 249 249 250 250 250 250 250 251 250 250 251 252 254 252 250 254 257 259 258 256 250 236 225 217 210 206 204
240 237 236 234 233 235 239 241 241 244 246 247 248 247 248 250 251 250 251 251 251 252 253 252 251 250 249 253 253 252 252 258 257 260 258 258 246 234 226 218 213 207 205
243 239 238 237 237 238 240 242 242 244 246 248 248 248 247 249 251 251 251 251 252 252 253 253 251 250 250 252 252 253 255 257 259 259 258 255 244 236 228 221 213 209 205
247 243 241 238 239 241 242 244 245 245 246 248 247 248 248 249 250 251 251 252 252 253 251 252 253 251 251 252 254 255 257 259 259 257 259 255 245 240 233 226 214 209 205
251 248 244 242 242 243 243 245 245 246 247 247 246 247 247 248 250 250 250 251 252 252 252 254 253 252 252 254 255 256 258 260 256 255 262 251 248 243 240 238 215 207 203
254 252 248 246 245 245 246 244 246 248 247 247 247 247 246 248 250 249 249 250 251 250 252 254 254 253 254 256 256 257 260 259 255 258 257 258 248 248 247 245 225 209 203
256 255 252 250 248 248 247 247 247 248 247 249 248 246 245 246 250 249 248 248 249 248 251 253 253 254 257 257 258 259 260 258 256 258 258 259 253 251 254 249 229 220 211
259 257 256 254 252 250 250 249 248 250 248 249 249 248 245 246 248 249 247 246 246 246 250 251 251 254 257 258 260 261 261 258 257 257 261 253 253 256 263 246 246 213 212
262 260 259 257 255 253 252 250 250 250 249 249 249 248 246 245 248 249 246 245 243 244 247 249 250 253 257 259 261 262 261 259 257 257 256 253 253 261 268 244 232 226 208
265 263 261 260 258 256 253 252 251 250 249 248 248 247 246 246 246 248 245 243 242 242 244 246 248 251 257 259 261 264 263 259 258 254 252 255 262 258 255 235 221 204 211
269 267 265 263 260 258 255 252 251 250 249 248 247 246 246 245 244 244 246 242 240 241 242 243 246 248 254 258 262 265 262 258 256 251 251 258 259 250 253 236 218 220 225
273 271 269 266 263 259 256 254 252 251 250 249 248 246 245 244 243 243 244 242 238 239 239 240 242 247 251 254 260 263 260 259 255 252 251 253 251 249 241 234 228 225 222
275 274 271 269 266 263 259 255 253 252 251 249 248 247 246 243 242 241 242 240 238 237 237 238 240 243 248 252 254 258 256 259 259 257 253 255 252 244 245 244 241 235 227
280 277 274 271 269 266 264 260 255 252 251 249 248 248 246 241 239 238 238 238 237 236 236 237 238 241 243 249 252 254 254 257 258 259 256 254 248 243 247 245 245 242 236
283 282 280 276 272 268 265 262 258 254 251 248 247 246 244 240 236 236 234 235 235 235 235 234 236 238 241 245 249 255 253 255 258 259 259 255 249 247 248 250 249 249 242
286 285 284 281 276 271 265 262 258 254 250 246 244 243 241 238 235 234 233 233 234 233 233 233 234 236 238 243 247 252 254 256 256 257 255 254 252 250 248 251 251 251 247